Regional Weather Roundup
Issued by NWS Portland, ME

Home | Current Version | Previous Version | Text Only | Print | Product List | Glossary On
Versions: 1 2 3 4 5 6 7 8 9 10 11 12 13 14 15 16 17 18 19 20 21 22 23 24 25 26 27 28 29 30 31 32 33 34 35 36 37 38 39 40 41 42 43 44 45 46 47 48 49 50
000
ASUS41 KGYX 200910
RWRGYX
WEATHER ROUNDUP FOR MAINE AND NEW HAMPSHIRE
NATIONAL WEATHER SERVICE GRAY ME
500 AM EDT WED SEP 20 2017

MEZ002-005-006-010-012-015-018-020-021-024-026-027-029-201000-
MAINE

CITY           SKY/WX    TMP DP  RH WIND       PRES   REMARKS
PORTLAND       CLOUDY    66  65  96 N12       29.98F
SANFORD        LGT RAIN  66  65  96 N15       29.96F
BAR HARBOR     CLOUDY    65  65 100 N8        30.02F
WISCASSET      CLOUDY    68  66  93 VRB3      30.01F
ROCKLAND       LGT RAIN  65  65 100 VRB7      29.99F FOG
FRYEBURG       CLOUDY    66  66 100 N7        30.02F
LEWISTONAUBURN CLOUDY    66  65  96 N10       30.01F
AUGUSTA        CLOUDY    65  65 100 N9        30.03S FOG
WATERVILLE     CLOUDY    65  65 100 N8        30.01S
BANGOR         FOG       67  65  93 NE6       30.04F VSB 1
GREENVILLE       N/A     61  61 100 NW3       30.06F
MILLINOCKET    CLOUDY    64  64 100 NW5       30.08S
HOULTON        CLOUDY    61  61 100 N3        30.07S FOG
PRESQUE ISLE   FOG       59  59 100 CALM      30.09S VSB 3/4
FRENCHVILLE    FOG       57  56  96 S3        30.08S VSB 1/4
CARIBOU        FOG       59  58  96 CALM      30.08S VSB 1/4
$$

NHZ002-005-008-009-011-012-014-201000-
NEW HAMPSHIRE

CITY           SKY/WX    TMP DP  RH WIND       PRES   REMARKS
PORTSMOUTH     DRIZZLE   66  66  99 N12       29.93F FOG
ROCHESTER      CLOUDY    66  63  90 N9        29.95F
NASHUA         CLOUDY    66  66 100 N8        29.93F
MANCHESTER     CLOUDY    68  65  90 N9        29.93F
CONCORD        CLOUDY    68  64  87 N8        29.96F
LACONIA        CLOUDY    67  64  90 NE8       30.00S
PLYMOUTH       FAIR      60  58  94 CALM      30.00F FOG
BERLIN         CLOUDY    64  61  90 NW5       30.05F
WHITEFIELD     CLOUDY    56  53  90 CALM      30.04S
JAFFREY        CLOUDY    66  65  96 MISG      29.95F
KEENE          CLOUDY    69  64  84 N12       29.95F
LEBANON        PTCLDY    64  61  90 N3        30.00F
MT WASHINGTON  CLOUDY    50  46  87 E15         N/A
$$

VTZ005-007-008-201000-
VERMONT

CITY           SKY/WX    TMP DP  RH WIND       PRES   REMARKS
ST JOHNSBURY     N/A     56  56 100 MISG      30.02F
MONTPELIER     FOG       57  57 100 NW3       30.07F VSB 1/4
BURLINGTON     CLEAR     60  59  96 NE5       30.01S
$$

MAZ007-012-024-CTZ003-RIZ002-NYZ038-NYZ072-201000-
SOUTHERN NEW ENGLAND AND NY

CITY           SKY/WX    TMP DP  RH WIND       PRES   REMARKS
BOSTON         LGT RAIN  64  64 100 N21       29.88F FOG
WORCESTER      LGT RAIN  64  62  93 NE16G24   29.91R VSB 1/2
NANTUCKET      FOG       66  66 100 NE20G30   29.73F VSB 1
PROVIDENCE     CLOUDY    67  67 100 NE20G29   29.83F
HARTFORD       CLOUDY    69  65  86 N15       29.87F
ALBANY         MOCLDY    63  60  90 N7        29.96S
NEW YORK CITY  CLOUDY    72  65  78 N13G21    29.80R
$$

ANZ081-ANZ082-ANZ150-NHZ014-MEZ023>029-201000-
COASTAL MARINE OBSERVATIONS

STATION/POSITION TIME  TEMP    WIND        PRES    WAVE
                       AIR SEA DIR/SP/G            HT/PER
                 (UTC) (F)     (DEG/KT/KT) (MB)    (FT/S)
MOUNT DESERT ROC 0900   57      30/ 16/ 17 1015.5F
MATINICUS ROCK   0800   58      40/ 18/ 18 1014.9F
ISLE OF SHOALS   0800   63      20/ 23/ 26 1013.0F
JEFFREYS LEDGE   0836      63                N/A     7/12
GEORGES BANK BUO 0750   74 66              1009.4   14/12
$$

.............KEY..............
   WCI - WIND CHILL
   TC  - TEMPERATURE IN CELSIUS
   VSB - VISIBILITY IN MILES
   HX  - HEAT INDEX
   FAIR- INDICATES FEW OR NO CLOUDS BELOW 12,000 FT, WITH NO
         SIGNIFICANT WEATHER AND/OR OBSTRUCTIONS TO VISIBILITY.






USA.gov is the U.S. government's official web portal to all federal, state and local government web resources and services.